Location: Johnson City
(36.3130°N, 82.3540°W)
Time: 04:37:26
(UTC-05:00)

N. Korean satellite - Pass Details

Date: 05 December 2021
Orbit: 446 x 492 km, 97.3° (Epoch: 16 January)

Event Time Altitude Azimuth Distance (km) Brightness Sun altitude
Rises 05:34:00 0° 14° (NNE) 2,454 10.2 -22.0°
Reaches altitude 10° 05:36:03 10° 17° (NNE) 1,576 9.2 -21.6°
Maximum altitude 05:39:24 69° 100° (E) 480 6.6 -20.9°
Drops below altitude 10° 05:42:44 10° 185° (S) 1,566 9.2 -20.3°
Sets 05:44:43 0° 188° (S) 2,416 10.2 -19.9°
